Theta_e
316 315 317 321 324 324 328 328 333 337 332 325 326 328 323 324 329 327 330 332 334 332 333 337 337 337 340 341 340 340 341 343 344 342 342 339 334 334 335 334 334 331 333 337 338 337 337 338 339 338 337 336 337 335 331 331 332 333 333 332 332 332 332 333 333 333 333 333 334 334 333 332 332 333 333 333 333 332 332 331 329 330 332 332 332 331 329 328 328 327 324 321 320 318 317 319 323
317 316 319 321 322 325 333 330 329 332 329 323 322 324 322 328 332 328 333 334 333 333 337 339 337 336 337 339 338 342 341 338 339 340 338 336 335 335 334 334 334 333 333 336 336 335 337 338 339 338 336 335 335 332 331 332 332 332 333 333 333 333 332 332 332 332 333 332 332 333 333 332 332 334 335 334 334 333 332 331 328 329 330 331 331 330 330 328 327 326 324 321 319 318 318 321 323
317 317 320 322 325 326 332 331 325 325 326 321 318 322 328 334 335 331 334 334 334 337 339 338 338 336 336 341 341 344 342 337 337 338 336 335 335 334 334 334 332 331 333 335 335 334 337 338 338 337 335 333 331 328 329 333 332 332 334 333 333 333 333 333 332 332 332 332 332 332 332 332 333 334 335 334 334 333 331 329 331 331 329 330 330 330 329 328 326 325 325 324 321 318 319 322 323
317 319 322 322 328 331 332 329 327 326 322 322 320 323 333 336 335 333 334 335 337 339 336 337 341 335 337 344 340 342 340 337 337 336 335 335 335 334 334 333 332 331 333 334 333 333 336 339 338 336 335 333 330 327 327 331 332 332 333 332 332 333 333 333 333 332 331 331 332 332 332 332 333 334 334 334 332 331 330 330 331 331 329 328 330 328 326 327 326 325 324 322 320 318 320 322 323
318 321 322 322 327 332 329 324 331 329 319 324 324 325 335 334 335 334 334 336 338 339 336 336 339 334 338 341 339 343 340 338 337 335 335 334 334 334 333 333 333 333 334 334 333 333 336 339 338 336 334 332 330 327 326 330 332 331 331 332 332 331 332 332 331 331 330 330 331 332 332 332 332 334 333 333 332 332 331 331 332 331 328 327 329 326 326 327 326 326 323 319 318 318 320 322 323
319 321 322 324 326 325 325 321 326 324 316 326 325 327 336 332 334 334 333 335 336 339 336 335 336 337 340 337 338 341 339 337 337 335 334 334 334 333 333 334 334 334 335 334 332 333 336 338 337 336 334 331 330 328 327 328 331 331 331 331 331 330 331 330 329 330 330 331 332 332 332 332 332 333 334 333 333 333 332 330 331 330 328 328 329 327 327 326 325 325 322 319 319 318 320 321 322
320 323 328 330 330 324 324 322 324 324 318 322 324 330 334 330 334 334 334 335 334 335 334 336 336 340 341 337 339 338 336 336 335 334 334 333 333 333 332 333 334 335 334 334 332 332 336 338 337 336 333 331 330 330 328 327 329 330 331 331 331 331 330 330 330 331 331 330 331 332 332 332 332 332 333 333 333 332 331 330 330 328 326 327 328 327 328 326 324 323 321 319 318 319 320 321 321
320 324 332 331 333 330 325 324 327 329 321 319 323 329 331 331 335 333 334 334 333 332 333 335 334 341 340 339 341 337 335 336 334 334 334 334 333 332 331 333 335 335 334 334 332 333 337 338 338 336 332 330 331 331 329 328 329 330 330 330 331 331 330 331 331 331 332 330 330 331 331 332 332 332 332 331 332 332 331 331 329 327 326 327 327 327 327 326 325 323 321 319 318 319 320 321 321
321 324 332 330 331 334 329 326 325 324 321 321 322 327 329 330 332 330 330 330 331 331 333 334 334 343 340 338 340 336 335 335 334 335 334 334 332 331 332 334 335 335 335 333 331 334 338 338 338 336 331 331 332 331 330 329 331 330 330 330 331 331 330 331 332 332 331 330 330 330 331 331 331 331 331 331 331 332 332 331 328 326 326 327 326 326 326 326 325 323 321 319 319 319 319 321 321
326 324 331 334 331 330 331 329 323 321 321 322 322 325 328 328 329 328 326 325 329 333 333 332 334 341 340 338 339 337 335 334 335 335 333 332 331 330 332 335 335 334 335 333 333 337 338 337 337 333 330 331 332 330 330 329 330 330 329 330 331 330 330 330 331 331 331 330 330 330 330 331 330 330 331 330 331 331 331 330 328 325 325 327 326 326 326 325 324 322 320 319 319 319 319 320 321
330 328 329 332 329 326 329 328 323 321 320 321 322 324 325 328 328 325 325 326 332 336 333 331 333 337 340 340 340 337 335 334 335 334 333 332 331 331 333 336 335 334 335 335 336 338 337 338 335 330 328 330 331 330 330 328 329 330 328 329 331 330 329 329 329 330 330 329 329 329 330 330 330 331 331 330 330 329 329 329 328 326 326 327 327 326 325 323 322 320 319 319 319 319 318 318 319
330 333 329 326 328 329 329 325 321 322 323 323 322 322 325 329 328 325 325 327 334 336 332 333 331 335 342 342 340 336 335 335 334 334 333 332 330 331 334 337 335 334 335 336 337 338 337 337 333 329 328 329 329 330 330 328 330 330 327 328 329 329 328 328 328 328 329 329 329 328 329 329 329 331 331 330 330 329 329 328 327 326 324 325 326 324 322 321 319 319 319 319 319 318 318 317 317
329 332 328 328 335 333 329 322 321 328 329 325 322 323 326 327 327 325 324 325 331 333 330 331 329 336 342 340 338 337 336 334 334 334 333 332 330 331 335 337 335 335 336 336 338 337 337 336 333 331 330 330 329 329 329 328 329 328 327 328 329 329 328 327 327 327 329 328 328 328 328 328 329 330 330 330 330 329 328 327 327 326 324 324 324 321 320 319 319 319 319 319 318 318 317 317 316
329 332 325 330 338 331 331 324 323 331 326 325 324 323 326 325 324 324 328 331 332 332 329 326 330 341 341 338 339 338 337 334 334 334 332 332 331 331 335 337 336 337 337 337 337 336 336 335 334 333 332 331 330 327 328 328 328 327 327 328 329 330 329 327 327 327 327 327 327 328 327 327 327 329 329 329 329 328 327 326 326 326 325 323 321 319 319 319 319 319 319 319 319 318 318 317 317
326 331 326 330 334 331 335 326 324 330 323 324 325 324 327 324 323 326 330 335 333 330 329 325 328 338 341 341 341 337 336 334 334 334 332 332 331 331 334 336 336 336 336 336 337 336 336 335 334 334 333 332 331 327 326 326 326 326 326 327 328 329 329 328 327 326 326 326 327 328 327 326 327 328 328 328 328 327 327 326 326 326 323 320 319 319 319 319 319 319 319 319 318 318 319 319 319
324 329 328 328 331 330 334 327 324 327 322 324 324 324 328 323 324 326 323 329 330 326 328 328 327 334 339 343 341 335 335 334 334 333 331 331 331 331 333 335 336 336 336 336 337 337 336 336 336 335 333 332 332 329 327 325 324 326 326 325 327 328 328 328 327 326 326 326 326 327 327 326 326 326 326 326 327 327 326 326 325 323 321 319 319 319 319 319 319 319 319 319 318 320 321 322 321
328 331 330 328 330 327 326 326 324 325 321 323 324 324 327 324 324 322 320 326 328 326 331 330 329 336 340 339 336 335 335 334 334 333 331 330 330 330 331 333 335 336 336 336 336 336 336 335 335 335 334 333 332 330 329 327 325 325 327 327 326 327 328 328 327 325 325 325 325 326 326 326 325 324 324 325 325 326 325 324 323 321 319 319 319 319 319 319 319 319 319 319 319 322 323 323 322
331 335 330 328 330 323 320 321 322 324 322 323 323 324 326 325 324 322 321 325 326 328 333 332 333 335 336 335 335 335 334 334 334 333 331 330 330 330 330 331 332 332 333 337 337 336 336 335 334 334 334 333 332 331 330 329 326 324 325 326 326 326 327 328 328 325 323 323 323 324 323 322 322 321 322 323 324 324 323 321 320 319 319 319 319 319 319 319 319 319 319 319 321 323 324 323 322
330 332 329 330 328 320 318 318 318 319 321 321 321 322 325 324 324 322 322 324 325 328 330 332 336 336 335 334 335 335 334 334 334 333 332 330 330 330 329 329 330 330 330 335 337 336 335 335 333 333 334 334 333 332 331 329 328 326 324 324 325 326 326 328 328 327 324 321 321 322 323 323 322 320 320 321 322 323 322 320 319 319 319 319 319 319 319 319 319 319 319 319 321 323 324 323 322
329 327 329 332 324 318 317 316 317 317 318 321 319 319 321 321 322 323 323 323 324 328 330 334 336 337 337 334 334 334 334 334 334 333 332 330 330 329 329 329 328 329 330 331 335 336 335 334 333 332 333 334 334 333 332 330 329 328 325 322 323 325 326 326 326 327 325 322 323 325 326 326 325 324 322 320 319 320 320 319 318 318 319 318 318 318 318 318 318 318 318 319 321 323 324 323 322
328 326 329 329 322 318 316 315 317 317 318 319 319 319 318 318 319 322 323 322 324 324 327 333 335 336 337 334 334 334 334 334 334 333 332 331 330 329 329 329 326 327 330 330 331 332 332 334 333 332 334 334 334 333 332 331 330 328 327 323 320 322 325 325 324 324 323 323 326 327 327 327 326 326 326 323 318 317 317 317 317 317 318 318 318 318 318 318 317 317 317 319 322 323 324 323 321
328 327 327 323 319 319 315 315 317 316 318 319 319 318 317 317 317 320 321 322 326 323 321 328 331 334 336 334 334 334 334 334 334 333 332 331 331 329 329 330 328 327 329 330 330 329 330 331 331 331 334 334 334 333 332 332 329 327 327 326 323 320 320 323 323 322 321 323 326 327 327 327 327 326 327 325 321 319 317 316 316 317 317 317 317 317 318 317 317 318 318 321 323 324 323 322 322
330 328 325 321 319 317 314 315 316 317 319 318 318 317 316 318 317 319 319 322 326 322 322 327 328 332 336 334 334 334 334 333 333 334 332 332 331 330 329 329 330 329 329 329 330 329 329 329 329 329 331 333 333 332 332 331 328 327 328 327 326 322 319 322 325 323 321 322 324 327 327 327 326 326 326 324 322 322 320 318 318 318 318 318 317 317 318 318 317 318 320 322 322 322 322 322 324
330 329 325 322 320 316 316 316 315 318 319 317 317 318 319 318 317 318 318 322 323 320 324 327 326 332 336 334 334 333 333 333 333 334 333 332 331 331 330 329 329 330 329 329 330 330 330 329 328 329 329 329 330 330 331 331 328 328 330 328 326 325 323 324 326 325 324 323 322 326 327 327 326 326 325 321 321 324 323 322 322 321 320 319 317 317 319 319 316 318 321 322 321 321 323 324 325
328 330 327 323 319 316 317 317 316 318 317 317 318 320 322 321 318 317 318 322 321 319 326 328 326 332 336 336 335 333 333 333 333 333 333 332 331 331 332 331 329 329 329 329 330 331 330 329 327 328 329 329 328 328 330 330 328 328 329 328 326 326 327 326 325 325 326 324 322 326 327 327 327 326 324 320 321 325 324 324 324 323 322 320 319 318 319 319 318 319 321 321 322 324 325 325 325
327 329 326 321 318 317 317 317 318 319 318 319 320 321 325 324 318 318 320 321 319 321 333 333 328 333 336 336 335 332 332 333 333 333 333 333 332 331 332 332 330 328 329 329 329 329 329 329 328 326 327 329 327 326 328 327 327 328 328 328 326 326 328 327 327 327 326 324 322 325 328 327 325 323 322 322 321 322 323 323 323 324 323 321 320 318 316 317 320 321 321 322 324 325 325 325 325
327 328 325 321 322 321 319 318 319 320 318 319 321 322 327 323 318 322 323 319 318 323 333 334 331 332 335 337 335 332 333 333 333 333 333 333 333 332 332 333 332 329 328 329 328 327 327 328 330 328 326 326 325 326 328 326 326 327 327 328 326 326 328 328 327 327 327 325 323 325 327 326 324 323 323 324 322 319 320 321 321 321 321 319 317 317 316 318 322 324 324 324 325 325 325 325 325
327 327 325 323 325 326 323 322 321 321 320 320 319 322 324 321 317 322 323 319 319 323 328 331 334 333 334 337 336 332 332 333 333 333 333 333 333 333 332 332 332 330 328 328 328 327 327 327 329 329 327 325 323 325 328 326 325 326 326 327 326 325 327 329 327 327 327 326 325 324 323 322 325 326 325 325 323 321 321 321 319 317 315 316 317 319 320 322 324 325 325 326 325 326 325 324 324
326 326 327 325 325 328 327 325 323 323 325 322 319 325 325 320 317 320 321 319 321 324 324 326 331 332 333 336 336 333 332 333 334 333 333 333 333 333 333 332 333 332 330 329 329 328 327 327 328 329 328 325 322 322 326 326 325 325 324 325 325 323 325 328 327 327 327 326 326 323 320 319 324 326 325 325 325 324 324 323 321 319 318 320 322 323 323 324 325 324 325 325 325 325 324 323 323
326 325 329 330 328 329 328 326 325 324 326 323 323 330 331 326 322 320 320 319 321 324 323 323 326 327 329 332 336 334 331 332 333 333 334 334 334 334 334 333 333 333 331 331 330 329 328 327 327 328 328 326 323 321 321 323 325 326 323 322 323 322 320 323 324 325 327 326 324 321 318 317 320 324 325 325 325 325 326 325 325 325 324 325 325 326 325 325 325 325 325 325 325 325 323 324 324
328 326 331 335 334 335 330 325 327 325 323 324 326 331 331 331 329 324 321 318 319 322 322 322 323 324 324 328 334 334 331 331 334 334 334 334 334 334 334 334 333 334 333 332 331 329 328 327 327 327 327 326 326 323 320 321 322 324 324 322 321 320 318 318 318 320 323 322 320 319 318 316 316 319 323 325 326 326 327 327 327 327 326 326 326 326 326 325 325 325 325 326 326 325 324 325 324
329 331 335 335 335 338 330 323 326 326 320 320 327 331 329 329 329 325 320 317 317 319 320 322 324 323 323 325 330 334 331 330 333 335 334 334 335 334 335 334 334 333 333 333 332 330 329 328 328 327 327 327 327 325 323 322 322 322 323 322 320 320 319 319 317 316 317 318 318 317 317 317 316 315 317 322 326 327 326 327 327 327 327 326 326 326 326 326 325 324 325 326 325 325 325 324 324
330 335 339 336 335 335 328 322 324 324 320 318 324 329 329 327 324 320 317 316 317 319 319 322 324 324 323 325 329 333 333 332 332 333 335 335 335 335 335 335 334 334 334 334 333 331 330 330 329 328 327 327 327 325 325 325 324 323 323 322 321 320 319 320 319 318 317 317 318 318 317 317 317 315 314 317 322 324 324 325 327 327 327 327 327 327 326 327 325 323 324 325 325 325 324 323 323
332 335 338 336 334 331 328 325 322 321 321 321 322 324 326 326 322 317 316 317 318 319 319 320 323 323 323 325 329 332 334 334 332 331 334 335 335 336 335 335 335 334 334 334 333 333 332 331 330 329 328 327 326 326 326 326 326 325 324 322 322 321 320 319 319 320 319 319 318 318 318 317 317 316 315 315 318 322 323 323 325 327 327 326 327 327 327 326 325 324 324 324 324 324 323 323 323
334 334 335 336 334 331 329 327 324 320 320 322 322 321 322 323 322 319 317 316 316 318 318 318 319 322 323 325 329 331 332 334 331 329 332 335 335 335 335 335 335 334 334 333 333 334 333 332 331 331 329 328 327 326 326 326 326 326 325 324 325 324 323 321 320 320 319 319 318 317 318 317 317 317 317 316 317 320 323 324 324 326 327 327 327 327 327 326 325 325 325 324 324 323 323 323 323
333 333 333 337 337 333 329 325 323 320 318 320 321 321 320 321 321 321 320 317 316 317 318 318 317 318 321 324 327 329 331 331 328 328 331 334 335 335 335 335 334 334 334 333 333 334 334 333 332 332 330 329 328 327 327 327 326 327 326 326 326 326 325 324 322 321 320 319 319 318 318 317 317 318 319 319 318 318 321 323 324 325 326 327 327 327 327 326 325 325 325 325 324 324 324 324 323
331 331 332 334 335 333 330 325 320 319 320 320 319 320 319 320 320 320 320 319 317 317 317 318 317 317 319 322 326 328 330 328 325 326 329 332 334 335 334 335 334 334 334 334 334 334 334 333 333 332 331 330 329 328 327 327 326 327 327 328 328 327 326 325 325 324 323 321 320 320 320 320 320 320 321 322 321 320 320 322 324 325 326 327 328 327 327 327 326 325 325 324 324 324 324 324 324
330 332 333 332 334 332 326 322 319 317 321 323 321 320 320 320 320 320 321 320 318 317 316 316 317 316 318 321 324 326 327 325 324 326 328 330 333 334 334 334 334 334 334 334 334 334 334 334 334 333 332 331 330 330 329 328 327 327 327 328 328 328 327 326 326 325 324 324 323 322 322 322 322 323 323 323 324 324 323 323 324 325 326 327 328 327 327 327 326 324 324 325 324 324 324 325 325
332 335 334 334 335 328 320 318 318 317 321 326 324 321 321 320 320 320 321 320 319 317 317 316 317 316 317 319 322 324 325 326 327 327 327 329 331 333 333 333 334 334 334 334 334 334 334 334 334 333 333 332 331 331 330 329 329 327 327 327 328 328 328 327 326 326 326 325 325 325 324 324 324 325 325 325 325 325 326 326 325 325 325 326 328 328 327 327 326 325 324 325 324 324 324 325 325
333 336 335 336 334 331 327 320 316 317 320 323 321 320 320 318 319 320 319 319 319 319 319 317 317 317 316 317 319 322 324 325 327 328 327 327 329 331 332 333 333 334 334 334 334 334 334 334 334 334 333 333 332 332 331 330 330 329 328 327 327 328 328 329 328 328 328 327 327 327 326 326 326 326 326 327 327 327 327 328 328 327 325 326 327 328 328 327 327 325 325 325 325 325 325 325 325
334 335 335 338 335 333 332 322 315 318 321 320 318 322 326 323 321 321 319 318 318 318 319 318 318 317 317 318 318 319 321 323 326 328 329 327 327 329 331 332 333 333 333 334 334 334 334 334 334 334 334 333 333 332 332 331 330 330 330 329 329 329 329 330 330 330 330 329 329 329 328 328 328 328 327 328 328 328 329 329 329 328 327 326 327 328 328 327 327 326 325 325 325 326 325 325 326
334 334 335 339 337 329 324 322 321 327 333 327 318 328 340 334 326 324 322 320 319 318 318 318 318 317 317 317 317 318 319 321 324 326 327 326 327 329 330 331 331 332 333 333 334 334 333 333 333 334 333 333 333 333 332 332 331 331 331 330 330 330 330 330 330 330 330 330 331 330 329 329 329 330 329 329 330 330 330 330 329 329 328 327 327 328 328 328 328 327 326 326 325 326 326 326 326
335 337 337 337 336 328 322 325 330 335 338 328 318 329 339 333 325 325 325 324 323 320 319 318 318 318 317 316 316 317 318 319 322 324 326 326 327 328 329 330 331 331 332 332 333 333 333 333 332 333 333 333 333 333 332 332 332 331 331 331 330 330 330 329 330 330 331 331 331 330 330 329 330 331 331 331 331 331 331 330 330 330 329 328 328 328 328 328 328 328 327 327 326 326 326 326 326
338 339 339 337 336 332 327 329 335 337 336 328 322 324 328 327 325 323 322 324 324 323 320 319 318 318 319 317 316 316 317 318 320 323 327 327 326 327 329 329 330 330 330 331 331 331 332 332 332 332 332 332 332 332 332 332 332 331 331 331 330 330 330 329 329 329 330 331 331 331 331 330 329 330 331 332 332 332 331 331 331 330 330 329 329 328 328 328 328 328 328 327 327 326 327 326 326
337 335 335 336 336 335 332 332 335 333 334 335 327 322 328 333 333 327 323 323 324 323 321 320 319 318 319 319 317 316 317 318 319 321 324 324 324 326 328 329 330 330 330 330 330 330 331 331 332 332 332 332 332 331 332 331 331 331 331 331 330 330 330 329 329 330 330 330 331 331 330 330 330 329 329 331 332 332 331 332 331 331 330 330 329 329 329 329 329 328 328 328 328 327 327 327 326
331 330 331 332 334 334 333 337 337 330 332 336 329 325 332 336 335 330 325 325 325 323 321 320 319 319 318 319 319 317 317 318 320 319 318 318 323 326 327 328 329 329 330 329 329 329 330 330 330 331 331 331 331 331 331 331 331 331 330 330 330 330 330 330 330 330 330 330 330 331 330 330 330 329 329 329 329 330 331 331 331 331 331 330 330 330 329 329 329 329 329 328 328 328 327 327 327
329 331 330 331 333 334 334 336 338 334 333 334 331 329 331 335 338 333 325 326 325 322 321 320 319 320 320 320 320 319 319 319 320 320 315 313 317 322 324 326 327 328 329 329 329 329 329 329 329 330 330 330 331 331 331 331 331 330 330 330 329 330 330 330 330 330 330 331 331 331 331 331 330 330 330 329 329 329 329 330 331 331 331 331 331 330 330 330 329 329 329 329 328 328 328 328 328
332 335 333 333 334 336 336 332 332 336 335 333 331 328 327 333 339 335 327 326 324 322 323 322 320 321 321 321 321 319 319 319 319 320 317 314 314 315 318 322 324 326 327 328 329 329 329 329 329 329 329 330 330 330 330 330 330 330 330 329 329 329 329 329 330 330 330 330 331 331 331 331 331 331 330 330 330 329 329 330 331 331 331 331 331 331 330 330 330 330 329 329 329 329 328 328 328
331 332 333 335 334 335 337 332 330 335 333 328 326 325 326 329 330 328 325 323 323 322 322 322 322 322 323 326 325 323 321 320 320 320 320 319 317 312 313 318 321 323 325 327 328 328 329 329 329 329 329 329 330 330 330 330 330 330 330 330 329 329 329 329 329 329 329 329 330 330 330 331 330 331 331 331 330 330 330 331 331 331 331 331 331 330 330 330 330 330 330 329 329 329 328 328 328
327 328 332 336 334 335 338 333 331 333 329 323 322 324 329 329 327 326 324 322 322 321 321 323 325 326 328 328 327 328 326 326 328 326 324 324 318 311 312 315 317 320 323 325 326 327 327 328 329 329 328 329 329 330 330 330 330 330 330 330 330 329 329 329 328 328 328 329 329 330 330 330 330 330 330 330 331 330 331 331 331 331 331 331 331 330 330 330 330 330 330 330 329 329 329 328 328
326 328 332 334 333 335 337 334 333 333 326 319 319 326 333 334 331 326 322 321 320 319 320 323 324 328 331 328 325 326 325 327 331 328 326 322 313 310 312 313 314 318 320 323 325 326 327 327 328 328 328 328 329 329 330 330 330 330 330 330 330 330 329 329 329 329 329 329 329 329 329 330 330 330 330 330 330 330 330 331 331 331 331 331 330 330 330 330 331 330 330 329 330 329 329 328 328
329 331 332 333 335 337 335 332 333 332 326 321 322 328 333 331 326 322 319 321 321 318 319 320 320 324 326 327 326 327 327 328 329 328 327 320 309 308 311 311 313 315 316 318 321 323 325 325 326 327 327 328 328 329 329 330 330 330 331 331 331 331 330 330 330 329 329 329 329 329 329 329 329 329 329 329 329 329 329 330 330 330 330 329 329 329 329 329 330 330 330 329 329 329 329 328 328
329 330 331 330 333 338 336 330 327 327 329 328 324 327 330 326 324 323 322 324 322 319 319 320 321 322 322 324 328 330 331 331 331 332 332 322 310 309 311 311 311 312 312 313 315 317 319 320 323 324 325 326 326 327 328 329 330 330 330 331 331 331 331 331 331 330 330 330 329 330 329 329 329 329 329 328 328 328 328 328 329 329 329 328 328 327 327 328 329 329 330 329 329 329 328 328 327
329 330 329 326 329 334 335 331 327 327 331 330 323 325 328 327 329 331 326 325 324 321 320 319 320 321 322 325 329 331 332 331 330 331 332 322 309 309 313 312 313 313 312 312 311 311 312 313 316 317 318 319 320 322 323 325 327 328 329 329 330 330 330 330 331 330 330 330 330 329 329 329 329 329 328 328 328 329 329 329 329 329 329 328 328 328 328 328 328 329 330 329 329 329 328 327 327
328 329 327 328 332 332 331 333 332 330 331 331 326 325 327 327 329 330 324 324 328 326 321 319 318 320 322 325 327 330 332 332 331 330 333 325 311 309 312 312 313 314 313 314 312 311 311 310 311 311 311 312 312 314 316 318 321 323 325 326 327 328 329 329 329 329 329 329 329 329 328 328 328 329 329 328 328 328 328 329 329 329 329 329 329 329 327 326 326 327 329 328 328 328 327 327 327
325 326 325 329 332 330 331 332 333 332 330 332 329 325 329 331 326 324 323 322 325 324 322 320 319 319 322 324 326 332 336 336 332 328 332 327 312 308 312 311 311 312 312 313 313 312 312 311 310 310 309 309 310 311 313 315 318 320 322 324 325 326 327 328 328 328 328 327 328 328 327 327 327 328 328 328 328 328 328 328 328 329 329 329 328 328 327 327 326 325 326 326 327 327 326 326 325
324 326 326 328 326 327 331 330 331 334 332 333 331 328 337 338 325 321 322 321 322 323 323 322 320 321 322 322 326 334 337 337 333 328 332 327 311 308 312 311 311 312 311 312 312 312 312 311 311 310 310 310 311 312 313 315 317 319 321 323 325 326 326 326 326 326 326 326 326 326 326 327 327 327 327 328 327 328 327 327 328 328 328 328 328 326 326 326 326 325 325 325 326 327 326 325 324
324 326 326 327 324 325 331 330 329 331 331 334 333 330 338 341 327 321 320 319 322 324 324 324 323 322 321 320 325 332 335 336 333 330 334 325 310 309 312 311 311 311 311 311 311 311 311 311 311 311 311 311 311 311 311 313 315 317 320 322 323 324 324 324 324 324 325 325 325 325 325 326 326 326 326 327 327 327 327 327 328 327 327 326 326 325 324 325 325 326 326 325 325 325 324 324 324
Wind_Speed
11 12 12 11 10 11 8 2 2 3 2 1 2 1 1 1 3 4 4 4 2 2 3 2 3 5 6 7 10 9 5 2 1 2 2 4 12 17 15 16 17 17 19 18 16 15 13 14 15 15 15 14 13 13 14 15 15 14 15 15 15 15 14 15 15 15 15 15 16 16 16 17 18 17 15 17 17 16 17 17 18 18 18 18 17 17 17 17 17 18 18 19 20 21 22 24 24
11 12 11 11 9 4 2 2 3 3 4 2 2 1 1 3 5 5 5 4 2 1 3 5 6 9 11 11 10 8 7 5 3 2 4 14 18 17 16 16 14 15 18 18 16 15 14 14 15 16 15 15 14 13 15 16 15 15 15 15 15 15 14 15 15 15 15 16 17 16 16 17 18 17 16 16 16 17 17 18 18 17 17 17 17 17 17 17 17 17 18 18 20 22 23 24 25
11 12 12 11 6 1 1 3 3 1 4 2 3 2 4 6 5 5 6 6 3 4 5 5 7 6 8 9 6 5 2 2 5 4 6 18 17 16 18 13 11 12 16 18 16 15 14 15 16 16 15 15 14 13 16 17 15 14 15 15 15 15 15 15 15 15 16 16 17 17 16 17 17 16 15 16 17 17 17 17 18 18 18 17 17 16 16 16 16 17 17 18 19 22 23 23 24
11 11 12 9 4 2 3 3 2 3 3 3 1 2 5 7 6 5 5 5 3 4 4 4 5 3 6 10 5 5 4 2 5 5 6 13 16 19 18 12 12 15 17 16 14 15 15 16 18 17 15 14 14 14 16 17 14 14 15 15 15 15 15 15 15 16 16 16 16 16 16 17 17 16 15 15 16 16 17 17 17 17 17 16 16 15 16 16 17 17 17 18 19 21 22 23 23
10 11 10 3 2 2 2 2 0 4 1 3 4 2 5 7 6 5 3 4 4 6 3 3 3 2 6 6 2 3 4 3 5 7 8 15 21 21 16 13 16 19 18 13 14 16 16 18 18 17 16 14 14 14 15 15 14 15 15 14 14 14 14 14 15 15 15 16 15 16 16 16 16 15 14 15 15 17 18 17 16 16 16 16 16 15 16 17 17 17 17 19 20 21 22 23 23
10 11 6 2 1 0 2 2 2 2 2 3 6 4 6 7 7 6 4 5 5 6 4 4 4 4 5 3 4 3 4 7 7 9 14 20 22 19 16 16 19 21 18 13 14 17 16 18 18 17 16 14 14 14 14 14 15 15 14 13 14 14 13 13 14 14 14 15 15 15 16 16 16 14 13 15 16 17 17 15 15 15 15 16 16 15 16 16 16 17 18 19 20 21 22 22 22
10 8 3 3 2 1 3 2 1 0 1 2 7 6 7 7 7 7 4 3 5 5 4 4 7 7 3 2 5 5 5 13 12 15 20 24 21 18 17 17 20 21 16 13 14 16 17 18 18 17 15 15 14 14 13 13 14 15 14 13 14 14 14 13 13 13 13 14 14 14 15 16 15 14 13 14 15 15 15 14 14 14 14 15 15 16 16 16 16 17 18 19 20 21 21 21 21
6 3 1 4 2 2 2 2 3 3 1 2 5 7 9 8 7 6 4 2 1 1 2 2 6 6 3 3 4 6 12 17 17 22 25 24 20 17 16 17 19 20 15 13 15 17 18 18 18 17 16 15 15 14 12 13 14 14 14 13 14 14 13 13 12 12 12 13 13 13 14 15 14 13 13 13 13 13 14 13 14 14 15 15 15 15 15 16 16 16 17 19 20 20 20 19 20
4 1 1 3 1 3 2 0 2 2 1 2 5 6 8 8 7 6 4 2 3 2 1 2 6 5 2 7 5 5 13 19 23 25 23 22 19 18 16 16 19 19 14 13 17 19 18 18 18 17 16 15 15 14 12 13 14 13 13 12 13 14 13 13 12 12 12 12 13 13 14 15 14 14 12 12 13 13 13 13 13 14 14 14 14 14 15 15 15 16 17 18 19 19 19 18 18
3 1 1 2 1 3 5 3 2 1 1 3 5 6 7 7 7 7 5 4 4 4 1 3 8 7 6 7 4 3 12 21 24 22 20 20 19 18 16 15 18 16 13 15 19 19 19 18 17 17 16 16 15 13 12 13 14 12 12 13 14 14 13 11 11 12 12 12 13 12 13 14 14 13 11 11 12 12 12 12 12 12 14 14 13 14 14 14 14 15 17 17 17 17 17 17 16
2 1 1 2 2 2 4 2 3 2 2 3 3 3 4 6 6 6 6 5 4 5 1 3 7 8 7 5 1 6 18 22 22 22 20 18 18 19 16 15 16 13 12 17 19 19 20 18 17 16 16 16 14 13 11 12 13 11 10 11 14 14 13 12 11 12 12 12 13 13 13 13 13 13 12 11 10 10 11 11 11 11 12 12 12 13 13 14 14 15 16 16 16 16 16 16 15
1 3 2 2 1 2 3 3 3 3 3 4 3 2 3 5 6 5 7 5 4 5 1 1 5 6 6 3 2 8 19 20 21 22 17 16 20 20 16 16 14 10 12 17 19 20 19 18 18 16 15 14 13 12 11 13 14 10 9 10 13 14 14 13 11 11 12 13 13 13 13 12 13 13 13 12 11 10 10 10 10 10 11 11 11 12 13 15 15 15 14 14 14 14 14 14 14
1 1 3 0 3 3 2 3 3 4 4 2 1 2 3 5 3 5 7 5 4 6 1 4 3 6 5 2 3 7 13 18 22 20 16 17 21 20 16 15 13 11 13 17 20 20 20 19 17 15 14 13 12 12 11 12 13 10 9 10 11 12 13 13 11 12 12 13 13 12 13 13 13 14 13 13 12 11 12 11 11 11 10 11 12 13 14 14 14 13 13 13 13 12 12 12 13
1 0 3 1 2 1 2 2 2 4 2 3 1 3 2 3 1 3 7 6 3 4 2 2 5 8 4 3 3 4 9 20 24 18 16 17 20 19 15 15 14 12 14 16 19 20 20 19 17 16 14 12 11 11 11 11 11 10 10 10 11 12 12 12 11 12 12 11 11 11 12 13 14 14 13 12 11 11 12 12 12 11 10 12 13 13 13 13 12 12 12 11 11 11 12 12 12
1 0 3 1 2 3 2 2 3 5 1 3 1 2 3 2 2 7 6 6 2 2 1 3 4 5 5 6 4 7 13 24 26 19 17 18 20 19 15 16 14 12 13 15 19 20 20 20 18 17 14 12 11 11 11 11 10 10 10 10 10 11 12 11 10 11 11 10 10 11 11 12 13 13 12 10 10 10 10 10 10 10 10 12 13 12 12 11 11 10 10 10 10 10 11 12 12
2 2 2 0 2 2 2 1 3 4 1 3 2 2 5 3 2 6 1 5 2 2 3 2 1 3 5 7 8 16 22 27 26 21 19 19 21 19 16 18 16 13 13 15 18 19 19 20 19 18 15 13 12 11 11 10 10 10 10 9 9 11 11 10 10 11 10 9 9 10 10 12 12 12 11 10 10 10 9 9 9 9 10 12 12 12 11 10 10 9 9 8 8 9 10 11 11
3 3 2 2 2 1 2 0 3 4 2 2 3 2 5 2 3 2 1 5 4 3 5 2 4 3 3 7 19 27 28 27 26 22 20 20 21 19 16 18 20 17 14 15 16 17 18 18 18 17 15 14 12 12 11 11 11 10 11 10 9 10 10 10 10 10 10 9 9 9 9 10 10 10 11 10 10 10 9 8 9 9 11 12 12 11 10 9 8 8 7 7 7 7 8 9 9
3 3 2 3 2 1 1 1 2 5 4 3 2 2 6 2 1 0 2 5 3 5 5 4 7 7 9 18 28 31 29 27 26 24 21 20 20 19 17 18 21 19 15 17 17 16 17 17 17 16 15 15 13 13 12 11 11 10 11 11 10 10 10 11 10 10 10 9 9 8 8 8 9 9 10 11 11 10 9 9 8 9 10 11 11 10 9 8 7 6 6 6 6 7 7 7 7
2 2 2 3 2 1 0 1 2 2 6 5 2 3 5 4 3 1 1 1 2 6 3 4 8 8 12 20 27 28 28 27 25 25 22 20 20 19 19 19 22 20 16 18 19 16 16 16 16 15 15 16 15 13 12 11 11 10 10 11 11 10 11 11 11 10 9 9 10 9 9 7 7 8 7 9 10 10 10 8 8 9 9 9 9 9 8 7 6 5 5 5 5 5 5 5 4
1 2 2 3 3 2 3 3 3 2 4 7 4 3 4 2 3 2 2 3 3 5 4 4 7 7 9 14 21 25 24 23 23 24 21 20 21 20 20 21 23 22 18 16 20 19 16 16 15 14 14 17 17 14 13 12 11 10 10 11 11 12 11 11 11 9 9 10 11 11 9 7 5 5 4 5 8 9 9 8 8 9 9 8 8 7 7 6 5 4 3 4 4 4 4 2 1
1 2 3 4 3 3 2 2 3 3 1 6 4 5 4 1 2 3 4 3 3 5 6 8 10 13 12 12 18 21 21 21 20 21 21 19 20 21 20 21 23 23 20 15 18 20 17 17 17 15 15 18 18 16 14 12 11 11 10 10 11 12 12 11 10 8 10 13 13 11 9 8 6 5 4 4 5 7 8 8 8 8 8 8 7 7 6 5 4 4 3 3 3 3 2 1 0
1 2 3 3 3 3 2 0 3 4 2 4 5 5 1 1 1 2 4 3 4 5 6 9 12 15 16 15 17 19 19 19 19 20 21 20 20 21 21 21 22 23 23 20 21 21 19 19 19 17 17 19 18 16 14 12 12 13 11 10 10 11 12 13 12 10 12 15 13 9 9 11 9 7 7 6 6 7 7 7 7 8 8 7 7 6 6 5 4 4 3 2 2 2 2 1 1
2 4 3 3 4 4 3 0 2 2 4 4 3 2 0 2 1 2 5 6 7 6 6 8 13 18 21 20 18 17 16 18 20 22 24 23 22 22 23 23 24 24 26 25 23 23 21 21 22 19 18 20 18 15 14 13 12 12 12 12 10 10 12 14 14 11 13 16 13 9 11 14 13 10 9 8 9 9 8 7 7 8 8 7 7 6 6 5 4 4 3 2 2 3 3 1 1
3 2 5 5 4 5 4 2 1 3 5 2 2 2 1 2 1 1 3 6 7 6 3 10 16 21 22 18 16 17 18 20 22 24 26 26 26 25 23 23 24 25 25 26 25 23 22 22 23 22 20 22 20 16 15 14 13 13 14 14 12 10 11 14 15 13 13 15 14 11 13 15 14 13 11 11 12 10 8 8 7 8 8 7 7 7 6 5 4 4 4 3 3 3 2 1 1
3 3 3 4 3 5 5 4 2 2 1 1 4 3 2 4 3 1 5 7 6 5 5 11 16 17 17 15 14 15 16 19 20 22 24 25 27 25 23 20 21 25 25 25 25 24 23 22 24 25 23 24 24 21 19 17 16 16 17 17 15 13 12 13 13 14 15 16 16 15 13 14 15 15 13 12 13 11 10 10 9 9 8 8 7 7 7 6 4 4 4 3 2 2 2 3 2
6 6 3 2 2 5 5 4 5 3 3 2 3 2 6 5 2 2 7 9 6 7 8 10 13 13 13 12 13 15 14 17 20 21 22 25 27 26 24 21 19 26 27 24 25 26 25 24 25 27 26 25 25 24 22 21 20 20 20 19 18 17 15 14 14 14 16 16 17 18 14 14 15 16 13 11 12 12 13 13 12 11 10 10 9 8 7 7 5 4 3 3 3 3 4 5 4
6 8 4 2 1 2 4 4 5 3 3 3 4 4 6 4 2 3 8 7 5 9 9 9 12 12 12 11 12 15 16 18 22 22 20 21 26 27 27 25 22 26 28 26 25 25 26 27 26 27 27 26 25 25 24 24 23 23 22 20 20 20 19 16 16 15 16 15 17 19 18 15 14 13 11 10 10 12 14 13 12 12 12 11 9 8 7 7 7 5 5 5 5 6 6 8 8
7 8 4 1 2 2 2 4 4 2 2 5 6 4 5 2 2 6 8 4 8 11 9 9 11 10 10 10 10 13 16 20 23 21 20 22 26 28 29 29 26 26 29 28 25 25 26 29 28 27 27 26 26 27 26 25 24 24 25 23 21 23 22 19 19 18 17 17 17 18 20 18 15 13 12 11 11 11 13 11 10 12 12 10 7 8 7 6 8 8 8 7 8 9 8 9 9
5 7 5 2 2 3 5 4 4 4 3 6 6 3 5 5 6 9 9 6 8 10 10 10 10 9 9 9 9 9 14 19 21 22 25 27 28 28 30 32 29 27 29 28 25 26 27 29 29 28 26 25 26 28 27 26 24 23 25 25 22 23 25 23 22 20 19 20 18 18 18 18 18 16 15 14 13 13 12 11 10 11 11 8 7 9 9 8 8 9 10 9 10 9 9 8 7
4 4 3 3 1 4 8 6 6 5 4 6 6 2 5 7 10 12 10 8 9 9 10 9 9 8 8 8 8 8 12 17 20 25 30 29 29 29 30 32 31 28 28 29 28 28 29 29 30 29 28 26 26 27 28 27 25 23 23 24 22 21 24 25 24 22 22 22 20 18 18 19 21 20 18 17 15 15 14 12 12 11 10 9 9 11 12 11 9 10 11 11 9 8 8 8 8
4 3 2 3 3 4 6 6 8 6 4 6 7 4 6 4 9 10 8 10 11 10 10 9 9 8 7 8 9 8 11 17 23 28 30 29 29 29 31 31 33 30 27 29 31 30 30 30 30 31 30 28 27 27 27 28 26 24 22 22 22 20 22 24 25 24 23 23 21 20 18 19 21 22 21 19 19 18 17 15 14 14 12 11 12 13 14 13 11 11 11 11 11 10 9 10 9
3 3 1 3 4 3 5 3 10 9 3 5 7 4 6 6 9 8 5 10 12 10 9 8 9 9 8 7 9 8 9 16 24 27 28 29 29 29 31 31 33 34 30 29 30 31 31 30 31 31 31 31 29 28 27 27 26 25 23 22 22 21 21 22 23 24 23 23 23 22 21 19 20 23 24 23 22 22 21 19 18 16 15 14 15 15 16 15 13 12 12 12 13 12 11 10 10
2 3 3 4 4 3 4 3 7 10 3 3 6 4 4 5 6 5 4 10 11 9 8 9 9 9 9 7 8 9 8 11 16 23 28 29 30 31 32 32 33 35 34 31 30 32 32 31 31 31 32 32 31 30 28 28 27 26 25 23 23 23 23 22 22 23 23 24 24 23 23 22 21 22 25 25 25 25 23 22 20 19 18 18 17 18 18 18 15 13 12 12 13 13 12 11 11
3 3 3 4 4 4 1 2 3 6 6 5 7 6 6 5 4 4 3 6 8 8 8 9 9 8 8 7 7 8 9 9 11 20 28 29 31 32 33 33 33 34 35 34 32 32 33 32 32 32 32 33 33 32 31 30 29 28 27 25 25 25 25 24 23 24 25 25 25 25 24 24 24 24 25 27 26 25 24 23 22 22 21 20 20 21 20 19 16 13 13 13 13 13 12 11 12
7 6 4 2 3 5 5 3 3 6 5 6 7 7 11 9 6 5 6 4 5 7 8 8 9 9 8 8 8 8 9 10 13 21 27 30 31 32 33 33 33 34 34 35 34 32 32 33 32 32 32 33 33 33 32 30 28 28 28 27 26 27 27 27 26 27 27 27 27 27 26 26 26 25 25 27 28 27 25 24 23 23 23 21 22 22 21 19 17 16 15 15 15 14 13 12 12
10 8 6 4 4 5 7 5 4 9 6 5 8 9 10 9 8 8 8 5 5 7 7 7 7 8 8 8 8 9 9 10 16 23 25 28 31 31 32 33 33 34 34 35 35 33 32 33 33 33 33 33 33 33 32 31 29 29 29 28 28 29 28 28 28 28 28 28 28 28 28 28 27 26 25 26 27 28 27 26 24 23 23 23 24 24 24 22 19 19 18 18 17 15 14 15 14
9 7 6 6 5 4 7 6 4 7 7 6 10 9 9 8 9 9 8 7 7 8 8 8 8 7 8 9 10 10 11 12 16 20 23 27 30 31 31 31 32 33 34 35 35 35 33 32 33 34 34 33 34 34 34 33 32 31 30 31 32 31 30 29 29 30 30 30 29 29 29 29 28 28 27 26 27 28 29 28 27 25 25 25 26 26 26 24 21 21 21 20 19 18 17 17 17
6 6 5 6 5 3 3 3 4 5 4 5 7 7 10 10 9 8 7 8 9 11 11 9 9 8 7 10 11 11 9 9 10 14 21 26 28 30 31 31 32 33 34 35 35 36 35 34 34 34 35 35 35 35 35 35 36 35 34 33 33 33 32 32 32 33 32 32 31 30 30 30 30 30 29 29 28 29 29 30 30 29 28 28 28 28 27 25 23 22 22 22 21 21 20 19 18
4 4 4 4 4 2 3 2 3 4 2 3 3 5 9 9 9 9 8 9 10 11 13 11 11 10 9 9 11 10 9 8 7 9 17 25 28 30 32 32 34 34 34 36 37 36 36 36 36 35 36 36 36 36 36 36 37 37 36 33 32 32 32 34 35 34 33 33 33 32 31 32 32 32 32 31 30 30 30 31 32 31 31 31 30 30 29 28 26 24 24 24 22 22 22 20 20
3 4 4 4 4 4 0 3 1 2 2 1 1 4 7 7 7 10 11 11 10 10 12 12 11 12 12 11 10 11 11 10 9 9 12 21 26 28 31 33 35 34 33 35 37 37 37 37 38 38 38 38 38 38 38 37 35 34 35 33 31 30 30 30 32 33 33 33 34 33 33 33 33 33 33 32 32 32 32 32 33 33 33 33 33 33 32 31 28 26 26 26 25 24 23 21 20
4 5 5 4 4 4 3 3 2 2 3 2 2 5 6 5 7 10 9 9 10 9 9 10 11 12 12 11 11 12 13 12 12 11 11 16 22 27 32 34 34 34 34 36 38 39 39 39 40 40 40 40 40 40 39 37 34 32 31 30 28 28 28 27 28 32 34 34 35 35 35 34 33 34 34 34 34 33 33 33 33 34 34 35 35 36 35 33 31 30 29 28 28 27 25 23 21
4 5 7 6 5 4 5 7 5 4 4 3 1 2 5 4 5 8 6 5 9 8 8 11 12 11 10 10 11 11 12 12 12 13 13 16 21 26 30 31 31 33 36 39 40 40 40 40 41 40 39 39 40 40 39 38 36 34 32 31 29 29 29 31 33 35 36 37 37 37 36 35 34 35 35 36 36 35 35 34 34 34 35 36 37 37 36 35 34 33 31 30 31 29 27 24 22
3 5 8 7 6 7 8 7 5 2 3 3 1 3 5 6 5 8 6 6 9 8 10 14 12 10 10 10 10 11 11 11 10 11 12 15 20 23 25 29 32 35 39 40 39 39 39 39 40 40 39 39 38 38 38 38 37 36 36 35 34 32 32 35 37 35 34 36 36 36 36 36 36 36 35 36 37 37 36 36 35 35 36 37 38 38 37 37 36 35 33 33 33 31 29 27 25
3 5 8 9 6 7 8 7 4 3 2 3 3 2 3 6 6 9 8 8 10 8 10 13 13 12 13 12 12 12 12 12 11 11 12 15 21 24 26 30 35 39 40 38 37 39 40 39 39 40 40 40 38 38 38 39 39 38 37 37 36 36 35 34 33 32 32 32 33 35 35 36 37 38 38 36 36 37 37 37 37 36 37 37 37 38 38 38 37 35 34 34 34 34 33 31 28
4 4 6 8 6 7 7 6 3 1 1 3 4 2 1 6 6 6 5 7 10 10 11 13 14 14 15 14 14 13 12 12 12 12 13 15 22 28 32 35 38 40 39 37 39 41 40 40 39 38 39 40 39 38 39 40 41 39 38 37 36 36 36 32 29 29 31 32 32 34 35 36 36 37 39 39 38 38 38 38 38 37 37 37 38 39 38 37 37 36 36 36 36 36 35 33 31
3 3 6 5 4 5 5 5 4 2 1 4 4 2 1 6 6 3 3 5 9 10 10 11 13 14 14 14 13 11 9 8 9 10 12 17 24 31 34 36 37 39 38 37 38 38 37 38 37 37 39 39 39 39 39 40 40 40 39 38 38 36 34 31 29 28 30 31 33 34 35 36 36 35 37 38 39 39 39 39 39 38 38 38 38 38 38 37 37 37 37 37 37 37 36 35 33
6 6 8 8 5 5 4 3 4 2 2 4 7 6 3 4 5 5 5 5 7 8 7 9 10 10 11 11 11 10 9 8 9 9 11 17 23 27 27 29 32 35 36 35 35 34 35 36 36 38 39 38 38 38 39 39 39 40 41 40 40 38 34 31 31 31 30 31 33 35 35 35 35 35 35 35 36 38 38 39 39 40 39 38 38 38 38 37 37 36 37 37 37 37 36 35 34
7 5 5 5 3 4 3 3 3 2 4 3 7 8 6 6 6 4 5 6 6 7 7 9 10 9 9 9 8 9 9 9 10 9 10 12 15 18 19 23 27 29 30 32 34 34 35 35 35 37 38 37 37 38 39 39 38 40 41 41 40 39 36 33 34 34 33 33 34 34 33 33 34 35 35 35 36 36 37 38 39 39 39 39 39 39 39 38 37 36 36 36 37 36 36 35 35
6 5 6 5 1 1 1 1 0 4 3 1 5 6 5 8 8 7 12 14 11 9 8 9 10 10 8 7 7 8 8 8 8 8 8 8 9 13 18 23 26 27 29 32 34 34 34 35 35 36 38 38 36 36 37 38 38 39 40 40 39 38 36 36 36 35 34 33 33 32 31 32 33 34 35 35 36 35 36 37 38 39 39 39 39 38 38 38 37 37 36 37 36 36 36 35 35
8 8 7 6 4 3 5 3 1 3 3 2 3 5 3 6 6 10 16 16 12 10 10 9 8 8 7 6 5 5 6 7 7 7 8 8 9 14 18 22 24 26 29 31 32 32 33 33 34 35 37 36 34 35 35 36 38 39 38 38 38 37 36 37 36 35 33 32 31 32 32 33 33 34 35 35 35 35 36 37 38 38 38 38 37 37 37 37 36 36 36 37 37 36 36 36 36
5 6 6 6 5 4 5 4 2 3 1 2 2 3 4 3 4 8 10 10 9 8 9 8 7 6 5 3 2 3 5 6 6 7 8 8 10 15 18 20 22 24 26 27 29 31 31 32 34 35 36 34 32 33 34 35 37 37 37 37 37 36 36 35 35 34 33 32 32 32 33 34 34 34 35 35 35 35 36 37 37 37 37 36 35 35 34 34 35 36 36 36 36 36 36 36 36
2 3 5 5 5 4 2 3 4 4 2 2 3 3 5 4 8 11 9 9 7 5 6 5 6 5 4 4 3 4 5 5 5 5 6 7 9 12 15 17 20 22 23 25 27 29 31 32 32 33 33 31 29 31 33 34 35 35 36 36 35 34 34 33 33 33 32 31 32 32 33 34 34 34 35 35 36 36 36 36 36 36 35 34 34 34 34 34 34 34 35 36 36 35 36 37 36
2 4 6 5 4 6 3 2 1 4 2 3 3 5 5 4 9 12 10 10 7 4 5 5 6 5 4 5 6 6 6 6 6 6 6 7 8 11 14 17 19 21 24 26 28 29 30 31 30 30 29 28 27 29 30 32 32 33 33 33 33 32 32 32 33 33 32 31 31 31 32 32 33 34 34 35 34 34 34 34 34 34 33 33 33 33 33 35 35 35 34 34 34 35 36 37 35
6 6 7 4 3 3 3 2 0 2 4 3 3 6 5 3 5 7 7 7 7 5 6 6 6 5 6 7 7 7 7 6 6 6 6 7 9 13 15 16 17 20 22 24 25 25 26 26 27 27 26 26 26 27 27 29 30 30 31 30 30 30 31 32 32 32 32 32 32 32 31 31 31 31 32 32 31 31 31 31 31 31 30 30 31 31 31 31 33 36 36 34 33 34 35 34 33
5 6 7 6 2 2 4 3 3 4 5 3 2 5 5 5 5 7 9 9 7 6 7 6 6 6 7 7 8 7 6 5 5 6 6 6 9 13 15 16 17 17 18 19 19 19 20 21 21 22 23 23 24 25 27 27 27 28 28 28 28 28 28 29 30 30 30 30 30 30 29 29 28 28 28 28 28 27 27 27 28 28 28 28 29 31 31 29 28 31 34 35 36 36 35 35 35
3 5 6 5 2 3 4 3 2 3 4 2 2 2 5 6 6 8 15 15 10 7 7 7 8 8 8 7 7 7 5 5 6 6 6 6 8 13 15 16 17 16 16 17 17 18 19 19 19 20 22 23 24 24 24 24 24 24 24 24 24 24 24 25 26 27 27 27 26 26 26 26 25 23 23 23 25 25 24 24 25 25 25 26 27 28 30 31 29 29 29 30 32 33 33 33 33
6 8 8 6 3 2 2 2 2 3 4 3 2 3 5 6 6 10 15 14 10 7 8 8 8 8 9 8 7 6 6 6 6 6 6 6 8 12 13 14 15 15 15 15 16 17 18 19 20 21 21 21 21 21 21 21 21 21 21 21 21 21 21 21 21 21 21 22 22 22 23 23 21 20 19 19 21 23 24 25 25 24 25 26 26 25 26 28 30 32 31 29 31 34 34 32 28
8 7 8 8 6 4 3 4 3 3 4 4 4 4 7 5 4 7 10 10 8 7 8 8 8 9 10 8 8 7 7 7 7 7 6 6 8 11 12 13 14 14 14 15 15 16 17 19 20 20 19 18 17 18 19 20 20 21 20 20 19 19 19 19 18 19 19 19 19 19 20 20 20 18 17 16 17 19 22 23 23 24 25 26 25 25 26 28 29 32 33 32 33 35 34 29 27
Wind_Direction
341 342 343 345 341 339 331 73 62 319 78 11 284 103 254 183 108 86 49 42 56 30 72 92 31 61 93 107 117 101 56 359 171 149 172 146 142 150 147 143 144 142 144 145 144 138 129 129 129 125 122 117 109 107 109 108 109 109 106 105 105 104 104 102 102 102 104 107 105 100 98 99 96 93 98 105 99 94 95 91 87 88 89 87 87 85 83 82 81 79 78 78 79 82 89 96 98
343 342 348 349 339 348 316 98 79 327 46 33 283 118 161 26 54 87 88 72 94 144 83 72 50 70 105 121 123 90 45 24 80 105 105 122 131 140 141 143 144 141 148 151 147 140 130 130 131 128 125 119 113 113 110 106 106 105 104 104 104 104 104 103 102 105 105 105 106 103 99 99 99 97 99 103 99 96 92 86 86 90 90 88 87 86 84 83 81 79 78 78 81 87 92 97 97
343 343 347 353 350 86 11 39 85 15 63 110 267 320 80 70 78 104 103 100 117 115 77 55 52 65 98 96 75 68 78 31 76 77 109 123 126 138 143 140 136 139 150 152 149 143 134 133 133 129 126 119 112 112 112 108 105 104 105 105 104 104 104 105 104 105 105 104 105 104 101 100 100 99 101 103 101 98 95 93 94 94 92 91 89 89 89 85 83 82 81 80 82 88 93 97 96
341 344 342 353 12 38 44 45 148 123 107 167 351 7 95 105 111 102 98 101 93 81 70 62 53 4 70 85 81 79 113 130 106 109 123 131 132 141 140 132 127 130 143 148 148 147 138 136 135 130 126 118 111 112 113 110 107 108 108 109 107 106 105 104 102 102 104 105 104 104 102 102 101 98 100 101 99 98 95 96 96 94 92 91 91 91 90 86 82 81 83 84 84 89 93 96 96
338 338 335 4 50 11 84 60 82 86 117 187 98 80 119 120 115 102 77 63 58 64 63 87 76 359 60 72 93 98 118 121 139 135 120 131 135 137 134 134 137 136 145 145 147 150 141 139 137 132 127 118 112 113 117 117 117 112 111 114 110 109 108 104 103 101 103 106 105 106 104 104 104 100 102 105 106 104 100 98 96 94 91 90 91 89 88 86 84 82 84 84 84 90 95 97 97
346 343 344 96 139 124 111 38 5 36 277 181 112 141 136 120 120 108 71 42 39 61 61 77 96 89 72 49 61 79 176 140 145 147 127 130 136 137 135 138 145 147 150 147 151 152 143 143 138 133 128 121 117 115 119 123 124 119 118 119 114 111 108 105 106 107 109 112 111 110 108 105 106 104 104 109 109 107 106 106 103 98 94 93 91 89 88 87 86 85 85 85 85 91 96 96 96
358 355 13 62 342 37 101 93 212 250 328 109 117 145 135 125 125 107 94 52 13 29 38 66 109 100 75 113 78 30 132 141 142 145 136 134 137 138 138 139 145 151 150 147 156 154 145 145 139 135 131 127 125 122 120 121 126 125 121 118 116 114 110 109 111 115 117 120 118 115 113 110 110 109 106 108 108 106 106 107 105 99 96 96 94 91 89 88 87 87 86 86 88 91 93 94 94
16 7 48 61 1 359 83 141 210 193 81 73 118 141 137 135 125 110 130 122 34 48 34 49 98 94 30 70 91 42 95 131 136 139 140 138 138 133 139 145 145 148 149 150 156 154 148 146 140 138 137 133 131 127 124 120 122 123 119 120 122 118 114 116 118 119 116 119 121 118 118 113 109 107 108 111 112 110 107 106 101 97 96 96 96 95 92 89 88 88 87 88 89 89 90 93 92
32 71 18 63 18 349 348 299 238 202 132 95 103 127 137 134 123 118 126 114 133 123 97 116 85 98 100 67 94 77 91 122 130 135 141 138 137 134 143 153 150 148 147 151 153 152 147 145 141 142 142 136 134 131 128 123 123 125 123 126 124 122 121 122 125 122 117 119 119 119 120 116 110 108 112 115 115 114 109 107 102 100 98 97 97 96 93 91 90 89 90 89 88 87 87 90 92
32 130 66 70 38 353 317 305 212 192 144 134 102 119 130 132 127 122 120 118 121 102 110 106 89 112 129 94 100 121 115 126 130 134 137 134 137 141 149 155 156 152 148 150 151 150 146 146 144 147 146 139 139 135 133 131 130 133 132 132 127 126 128 126 127 123 120 121 118 120 121 117 117 120 124 119 114 113 109 106 104 104 104 102 102 102 100 98 94 92 91 90 87 85 85 86 89
25 333 83 91 39 340 284 269 186 142 101 97 57 82 111 123 115 110 115 109 105 113 157 58 97 122 110 102 138 141 136 135 136 137 134 136 142 144 148 150 156 158 153 152 151 149 148 150 149 149 147 143 144 141 139 136 136 141 143 142 137 135 135 133 131 127 123 123 123 125 126 124 125 127 125 119 113 113 111 108 106 110 113 110 110 112 109 103 98 95 94 91 88 84 83 83 85
41 327 51 101 175 223 213 183 168 107 52 54 40 349 76 99 100 120 123 118 129 111 138 110 123 133 100 99 193 146 141 141 141 140 137 141 145 145 146 149 156 161 157 156 153 151 152 154 151 150 149 147 148 149 147 141 146 153 148 147 148 149 147 146 141 135 131 131 136 135 135 138 138 130 122 119 115 114 114 113 112 113 117 113 110 111 107 103 100 98 96 91 88 85 82 81 80
96 328 59 118 201 214 204 155 153 92 24 7 163 275 75 83 93 147 130 116 126 101 168 226 124 97 98 114 141 150 147 146 145 141 139 139 142 144 143 149 157 159 156 158 157 154 157 157 156 156 154 153 155 156 155 152 157 159 154 152 152 156 156 155 148 141 142 144 149 144 141 146 146 137 130 128 123 121 120 120 118 116 120 118 112 109 106 105 103 100 97 92 89 85 79 76 72
213 44 102 246 257 281 242 143 129 97 25 278 255 314 47 80 62 102 107 86 60 120 193 248 107 91 101 134 131 172 158 150 148 142 140 140 144 142 138 148 154 153 154 160 161 159 160 160 161 162 160 161 163 161 161 162 164 163 165 162 156 160 160 155 150 150 153 153 151 146 142 147 150 147 142 139 135 131 129 128 127 128 130 124 116 112 111 108 106 103 98 95 90 84 77 70 64
178 39 114 220 323 324 256 151 141 117 136 249 292 355 58 77 100 69 94 112 39 221 156 35 100 103 148 165 172 189 160 150 151 144 138 141 148 147 142 148 151 152 157 163 166 165 163 164 165 165 169 172 169 166 165 168 172 172 173 171 166 167 165 158 155 159 159 158 156 148 145 147 154 156 153 150 148 144 140 140 139 142 141 129 121 117 116 112 110 107 102 98 91 84 75 66 61
107 82 72 356 297 319 302 137 117 111 193 231 275 43 78 349 64 79 120 137 112 321 45 18 18 106 163 175 168 165 156 151 153 147 138 140 150 153 147 147 151 155 164 166 169 171 168 168 169 169 174 176 174 173 171 172 176 179 177 175 171 171 170 164 160 164 166 166 163 156 152 152 156 162 164 163 162 160 156 157 153 152 149 136 127 123 120 117 115 111 106 100 95 87 75 66 61
60 72 63 287 262 347 318 326 139 142 193 235 295 23 102 337 12 95 287 87 107 67 61 30 23 69 141 150 150 152 151 151 153 148 141 143 152 157 151 150 154 157 168 172 170 174 174 174 174 174 177 178 178 177 176 175 174 177 180 175 170 172 171 167 164 167 171 169 167 165 164 162 163 167 172 173 173 174 168 164 164 158 151 140 133 130 126 124 121 117 112 103 99 91 76 64 58
54 88 130 245 219 175 255 283 203 149 140 194 244 96 118 149 11 65 34 54 94 90 72 64 49 52 95 127 141 146 149 151 153 150 144 146 153 160 159 159 163 164 171 176 176 177 178 176 176 178 178 181 180 178 178 177 173 174 180 180 177 176 172 171 169 168 169 166 167 165 159 161 165 167 173 177 178 180 173 166 167 160 149 139 137 136 134 133 130 127 120 109 103 93 80 65 64
82 126 135 236 190 157 284 74 1 102 147 157 130 100 110 150 163 88 98 187 141 107 80 76 77 74 98 123 137 144 149 150 154 156 152 153 157 165 166 167 174 177 175 177 180 183 183 177 178 180 177 184 185 180 181 180 178 176 180 186 185 181 175 175 175 173 169 162 159 149 143 149 159 157 157 173 179 182 179 173 173 162 150 143 142 144 143 144 140 140 132 116 109 94 83 69 74
145 123 128 241 178 87 10 51 41 8 149 135 112 88 84 112 141 114 155 185 179 158 155 112 122 137 128 133 140 145 151 153 158 161 162 163 164 170 172 172 179 186 183 181 180 183 190 185 183 184 177 186 191 186 186 184 183 182 183 189 190 186 180 179 183 185 175 160 154 147 149 156 169 168 150 170 178 184 185 177 176 166 159 155 153 157 155 155 153 154 148 130 115 94 87 52 59
155 130 165 226 144 96 352 30 40 344 82 123 119 84 68 341 112 133 138 132 255 225 192 174 165 159 152 150 149 151 153 157 162 166 172 175 173 175 179 179 181 185 184 189 190 187 193 189 187 190 185 190 193 189 191 191 189 187 188 191 191 190 191 188 185 189 178 163 158 158 170 180 192 201 196 208 186 180 186 177 176 173 170 171 169 173 172 172 171 169 163 144 125 111 120 339 333
150 225 209 225 110 116 226 84 20 331 18 76 88 92 128 275 75 159 141 150 239 229 203 188 168 160 160 159 156 157 159 164 168 172 179 184 183 180 182 185 184 183 182 190 200 199 198 191 189 191 188 192 194 193 196 197 192 188 188 187 189 190 193 193 183 182 177 166 167 175 187 191 193 201 213 231 208 180 180 178 182 185 183 186 186 189 193 192 186 187 181 154 155 176 234 279 91
146 234 258 239 127 133 193 134 341 1 67 74 104 131 201 51 353 222 163 188 224 221 209 178 165 163 160 157 159 164 169 173 176 179 183 186 189 186 184 186 188 188 187 189 196 201 204 200 195 193 191 193 195 197 200 199 193 194 195 190 193 192 184 189 188 185 182 173 177 187 188 193 198 209 219 221 210 190 182 187 192 198 195 195 198 205 211 206 202 210 209 209 232 252 262 255 84
123 201 245 229 146 134 152 147 276 51 87 140 121 76 56 119 217 245 187 223 233 237 203 145 154 157 155 159 168 174 177 180 183 184 186 188 190 189 186 186 190 192 191 191 193 196 203 206 201 199 202 202 201 200 200 198 194 198 202 197 199 203 190 192 194 191 193 186 189 191 187 198 211 219 217 207 207 200 194 203 208 211 210 207 208 215 224 226 221 221 223 249 264 247 239 244 258
182 184 245 236 141 146 153 149 171 78 111 152 68 51 259 214 195 193 238 244 223 202 137 127 143 150 159 169 174 178 181 184 185 185 188 192 192 192 191 190 192 193 193 194 194 196 199 203 202 202 207 208 206 204 202 200 197 199 204 204 206 209 205 205 202 197 201 198 197 198 196 206 217 223 217 202 207 210 208 214 215 220 227 226 223 222 231 237 222 211 212 227 232 207 251 278 256
196 181 214 235 154 164 159 165 180 187 206 112 72 301 270 246 221 236 248 244 211 164 132 135 145 154 170 175 177 179 181 186 186 186 189 191 193 196 196 194 195 194 195 196 196 199 200 201 203 205 208 210 206 202 202 202 201 201 204 210 213 207 202 209 209 204 208 205 199 199 206 212 212 219 219 208 214 215 212 215 216 221 230 232 233 228 225 224 208 195 206 210 212 221 256 260 244
178 170 179 184 183 179 166 192 199 190 211 169 164 249 264 258 240 240 266 255 175 143 139 149 153 165 178 179 184 182 181 188 188 188 187 186 190 196 198 199 200 197 195 196 199 202 201 202 206 207 210 211 204 197 200 202 202 204 205 211 215 205 196 201 206 207 211 211 203 201 210 213 202 210 218 219 223 214 211 216 218 222 226 229 230 222 211 203 198 203 220 226 230 236 247 251 256
166 165 160 176 355 337 222 214 209 159 233 198 172 242 264 257 221 215 251 248 144 144 155 161 164 176 182 182 187 184 187 189 186 186 188 189 191 194 199 201 202 198 194 197 201 203 201 202 207 209 211 210 203 197 200 204 206 206 205 210 215 207 197 197 201 206 212 214 214 209 211 209 197 204 215 223 226 214 214 221 219 220 222 225 222 214 206 195 202 213 222 231 239 249 257 258 264
143 153 157 191 357 299 247 233 214 173 225 199 156 308 271 221 223 218 225 205 149 153 166 172 177 182 183 184 188 190 193 186 181 188 196 198 197 196 199 202 202 199 197 199 203 203 202 204 207 210 211 209 204 201 202 204 208 207 206 210 215 208 201 200 199 201 209 215 219 217 214 207 198 201 208 218 225 218 220 221 214 214 216 218 206 203 205 204 217 224 227 235 242 251 255 255 263
105 120 131 149 53 266 232 217 209 188 204 177 144 281 253 217 227 224 218 196 160 164 180 184 185 186 187 185 187 196 195 184 184 195 200 202 200 200 201 203 204 203 200 200 202 204 204 205 206 209 210 210 207 205 205 204 207 210 209 210 213 210 205 205 203 202 207 213 218 219 216 210 203 202 203 211 219 217 219 217 212 213 215 214 203 204 210 213 228 235 231 230 239 248 248 255 268
112 110 78 151 174 254 245 210 189 187 214 160 144 238 247 241 244 239 224 190 174 183 192 191 190 192 192 187 186 195 196 190 194 200 202 202 202 203 204 204 205 206 204 201 203 204 205 206 207 208 209 211 210 208 207 205 206 210 211 211 212 213 209 208 208 207 209 213 216 217 219 215 208 206 204 207 213 215 216 214 215 216 217 215 210 212 213 214 228 238 229 226 240 250 250 258 264
135 147 220 213 193 258 296 224 178 179 230 160 149 232 260 255 252 256 220 178 179 190 196 197 196 197 196 190 187 192 198 196 199 203 204 204 203 204 205 205 206 207 207 204 203 204 205 208 208 208 208 209 211 211 210 207 207 211 213 213 213 215 213 211 211 211 214 215 215 217 221 222 215 211 210 209 212 215 215 215 217 216 215 216 217 217 214 219 236 243 232 230 242 246 248 253 250
221 171 179 211 194 239 318 312 191 169 156 196 191 227 269 269 259 259 200 171 174 186 198 201 199 203 200 193 189 188 194 196 201 206 205 204 204 205 206 207 207 207 208 207 205 204 205 208 209 209 209 209 211 212 212 210 209 212 215 216 216 216 217 217 215 215 218 218 219 220 221 224 223 217 215 215 217 220 219 218 217 214 216 219 219 221 222 230 240 237 229 231 238 241 245 247 243
212 189 181 226 198 191 229 301 244 159 146 209 224 236 244 267 291 285 240 181 173 187 203 204 201 207 204 197 193 188 191 196 203 206 205 203 203 205 206 207 208 208 209 209 209 207 207 208 209 211 212 212 212 211 211 212 212 214 217 220 219 218 219 221 221 220 221 222 224 224 224 226 226 223 220 219 221 224 225 223 220 217 219 222 220 223 228 233 235 227 224 227 231 237 243 242 241
182 186 187 235 205 196 204 219 206 170 170 204 216 242 242 253 277 278 276 246 201 208 209 209 206 203 204 201 196 195 195 201 210 207 204 203 202 204 205 207 208 209 209 209 211 211 209 209 209 211 213 213 213 213 212 212 214 215 219 221 222 221 221 223 224 224 224 225 226 228 229 229 228 228 225 223 223 225 227 227 224 221 221 223 222 225 229 230 228 224 224 226 229 236 236 231 234
175 176 172 181 196 213 211 218 207 174 172 213 213 232 241 247 254 251 264 257 231 236 232 227 219 204 203 203 200 201 200 209 215 210 204 202 202 203 204 206 208 208 209 208 209 210 209 209 209 210 213 213 212 213 212 211 212 214 217 218 220 221 222 224 227 228 228 227 228 229 230 231 231 231 229 227 226 226 227 228 228 223 221 223 224 226 228 227 226 224 224 225 227 231 227 225 231
162 166 175 192 200 227 214 220 233 167 162 223 222 232 249 248 247 243 246 241 230 238 239 233 230 214 201 203 205 202 204 216 215 207 204 203 203 203 203 205 205 206 207 207 207 208 209 209 209 210 211 211 211 211 211 210 209 210 212 214 217 219 221 223 227 229 230 230 230 230 230 231 232 232 231 231 229 228 228 229 229 225 222 222 225 228 228 228 228 227 226 224 226 227 222 223 230
144 164 181 206 208 232 241 205 196 162 157 245 232 238 254 253 253 251 239 232 227 226 228 227 227 223 207 202 207 205 209 217 205 198 201 201 202 202 202 202 201 203 205 206 207 208 210 211 212 212 210 209 211 213 213 212 213 212 211 213 216 219 220 222 226 229 230 231 231 230 230 231 232 232 231 231 231 230 229 227 227 226 223 222 225 228 228 229 229 227 224 222 225 226 225 225 226
134 149 166 211 209 172 350 3 168 166 173 260 250 243 255 255 256 256 241 233 230 223 223 223 218 219 216 203 203 206 211 215 200 196 200 200 201 200 200 201 203 205 205 206 208 208 209 210 212 212 211 211 212 215 216 216 217 217 216 217 216 219 222 225 228 230 231 231 231 231 230 231 231 232 231 231 231 232 231 229 227 226 224 222 224 225 227 229 228 224 220 220 223 224 227 227 223
156 145 158 220 206 154 236 300 245 195 199 227 315 289 269 257 255 255 242 234 237 229 223 225 216 213 215 205 198 199 203 209 207 203 201 200 200 198 198 201 204 205 205 206 207 207 207 209 211 212 213 214 214 215 218 219 220 220 220 222 222 222 225 228 230 232 232 232 232 231 230 230 230 232 232 231 232 233 233 232 230 227 225 224 224 225 227 228 226 222 220 221 222 220 222 223 221
205 178 174 206 200 168 166 173 160 351 322 315 11 324 286 250 241 250 245 239 244 236 226 232 227 220 218 209 203 201 200 201 201 203 202 198 199 198 199 202 203 203 205 206 206 206 208 209 211 213 214 216 216 217 218 218 218 218 218 221 224 226 227 228 229 231 231 232 232 231 228 227 228 230 232 232 233 234 235 234 232 229 227 226 226 226 229 229 226 223 221 221 221 219 219 219 217
229 205 190 190 172 136 121 130 110 38 329 296 55 306 288 290 259 254 257 253 247 239 226 231 230 223 223 219 214 211 207 203 199 200 197 195 199 200 202 203 202 203 207 209 209 208 209 211 212 213 214 216 217 217 217 217 216 215 214 214 216 219 222 224 225 226 227 227 229 229 227 226 225 227 230 232 234 235 235 234 232 230 229 227 227 227 229 229 227 225 223 222 222 223 222 219 215
221 219 190 181 146 119 129 139 122 111 249 275 99 179 265 311 294 263 264 256 248 239 230 233 231 223 222 220 218 216 213 209 206 202 194 193 197 199 203 204 203 207 211 211 211 211 212 213 213 213 214 216 217 217 217 216 215 215 216 216 216 217 220 224 225 226 227 227 227 228 228 227 225 226 228 230 233 234 235 235 233 232 231 229 228 228 229 229 229 228 226 225 225 226 224 220 218
218 222 179 176 154 135 148 143 136 175 211 321 16 124 262 291 270 260 259 259 260 249 237 239 233 228 225 220 218 215 211 206 202 202 197 195 196 197 202 205 206 211 213 212 212 213 214 214 215 215 216 217 217 217 216 215 215 216 217 218 220 222 224 227 228 228 229 229 229 229 230 231 230 229 229 230 232 234 235 235 234 233 232 232 231 229 230 230 230 229 228 228 227 227 226 224 223
233 222 171 177 163 144 147 129 115 100 89 303 304 82 277 272 263 269 258 251 261 249 236 237 232 229 227 224 221 215 211 206 200 201 200 199 199 199 203 206 210 213 213 213 214 215 215 215 216 216 217 218 218 217 217 217 217 217 217 219 222 225 227 229 231 231 231 231 232 233 233 235 235 234 232 231 232 233 236 236 236 234 234 234 233 233 233 232 231 230 229 228 227 228 229 228 226
208 136 105 95 94 95 107 117 105 66 117 236 241 144 222 270 258 244 232 234 247 245 236 234 230 228 227 227 226 219 212 211 209 208 205 205 204 204 207 209 210 213 214 215 216 216 216 216 216 217 219 219 218 218 218 219 218 218 219 220 223 226 226 227 230 232 232 231 232 233 234 235 237 237 235 234 235 235 235 237 237 236 235 235 236 236 235 234 233 232 231 231 229 229 230 231 230
125 93 81 68 53 58 63 71 87 97 255 227 203 180 176 277 264 218 211 225 230 234 244 245 240 235 231 229 228 219 209 208 211 212 213 212 212 211 212 212 212 213 213 214 215 215 216 217 216 218 221 220 220 219 219 220 220 219 221 222 224 226 225 224 226 229 230 229 230 231 232 235 236 238 238 237 237 237 235 236 237 237 238 238 238 238 237 236 235 234 233 233 232 231 231 232 232
117 92 107 93 29 25 35 14 53 194 250 224 190 178 172 235 260 242 246 263 246 225 232 244 243 240 237 230 226 219 211 209 207 209 214 214 215 215 213 215 217 215 212 212 214 215 216 216 216 218 222 221 221 221 221 221 221 222 224 224 226 227 226 225 227 228 229 227 229 231 231 233 236 238 239 238 238 237 235 235 237 238 238 239 239 240 240 239 239 238 237 234 233 233 233 233 232
132 125 136 126 97 31 189 239 338 217 245 259 179 167 193 242 258 268 267 266 257 234 230 240 240 239 244 241 234 224 214 210 206 208 212 208 211 211 207 210 214 213 212 212 214 214 215 216 216 218 222 222 221 221 222 222 222 224 226 226 228 229 229 229 231 232 232 231 231 232 231 232 233 235 236 237 239 238 235 235 236 237 238 239 240 241 241 242 241 240 239 236 234 233 233 234 233
160 152 153 155 155 178 199 190 268 230 237 273 175 164 235 276 269 249 252 258 260 246 234 236 235 225 221 227 231 214 196 193 192 193 199 200 204 205 204 206 208 210 211 212 213 214 215 216 216 219 224 224 222 222 223 223 224 227 228 229 230 230 230 232 233 235 236 235 234 234 235 234 234 234 236 238 240 239 237 236 235 236 237 239 241 241 242 243 242 241 238 236 234 235 236 236 236
162 147 142 160 165 177 195 180 195 212 219 276 217 177 202 219 248 237 236 255 271 258 236 230 231 215 187 178 190 175 176 181 183 183 190 197 198 197 199 200 201 205 208 209 212 213 214 216 217 219 224 224 221 222 223 224 226 227 228 230 231 231 232 234 235 237 238 239 239 238 239 238 237 238 240 243 244 242 240 238 237 238 239 240 242 244 244 244 243 241 239 237 236 236 238 238 236
205 130 130 187 186 146 148 187 179 149 121 238 227 232 211 211 274 278 264 258 267 275 263 238 228 216 163 156 188 198 201 202 198 193 203 216 210 203 202 201 202 205 206 208 211 212 214 216 217 219 223 223 222 223 224 225 228 228 229 231 232 233 234 235 236 238 239 240 242 242 242 242 242 244 246 248 248 246 244 242 241 241 242 244 247 248 248 248 246 242 238 236 237 238 238 236 234
169 160 169 197 172 122 127 226 156 111 168 231 204 248 287 313 288 286 283 273 275 293 280 250 236 234 202 201 215 222 227 223 213 208 215 224 219 214 213 211 211 213 213 215 215 215 216 217 218 219 222 223 223 224 225 226 228 230 231 231 233 234 235 237 239 240 241 242 244 246 247 247 248 248 250 250 250 250 249 247 245 244 245 247 249 250 250 249 247 246 242 236 235 236 235 231 230
145 183 178 138 76 95 133 193 125 147 220 257 206 228 273 300 267 295 310 282 266 256 248 246 248 246 234 235 236 232 233 233 230 225 223 221 215 213 211 213 217 220 221 222 222 221 220 220 220 221 222 224 225 227 228 229 230 232 233 234 235 237 238 240 242 243 244 245 246 248 249 250 251 251 252 252 252 252 250 248 246 245 245 247 248 249 250 249 245 242 242 242 240 238 234 232 237
144 176 166 138 142 193 164 167 198 198 217 271 250 224 233 217 229 287 289 266 248 237 235 237 236 228 228 239 247 251 253 247 235 223 214 210 206 206 206 210 215 219 221 222 222 221 221 221 223 225 228 230 231 231 230 230 232 233 236 237 237 239 240 242 244 246 247 248 249 250 250 251 254 254 255 254 252 251 249 246 245 245 246 248 249 249 250 254 252 243 239 240 241 237 235 238 243
101 149 167 168 161 167 172 171 170 184 197 239 269 235 240 230 213 234 252 257 247 217 214 225 222 217 221 228 236 242 240 226 214 207 206 205 203 202 205 211 215 218 220 219 218 217 218 219 221 224 227 228 228 229 228 228 229 231 233 235 235 237 239 241 244 246 248 248 249 250 250 252 255 257 258 256 253 251 249 248 246 246 248 249 251 252 250 249 251 252 249 245 241 237 237 239 240
163 169 179 186 165 107 161 192 144 146 170 195 216 238 255 250 213 214 236 253 249 209 196 215 218 216 220 222 220 216 209 211 213 210 210 212 210 206 208 215 218 217 217 215 214 215 215 215 216 218 220 221 222 221 221 222 223 225 228 229 230 232 234 237 239 241 244 246 247 248 249 251 254 257 258 257 254 253 251 251 249 249 253 253 252 256 259 252 245 245 248 250 249 245 241 237 236
176 181 182 181 173 134 157 215 192 160 186 183 180 242 267 256 214 220 233 243 242 210 187 200 216 217 219 220 216 205 193 201 212 211 208 207 205 202 203 207 209 210 210 211 212 214 215 215 215 215 216 216 216 216 216 218 218 222 225 226 228 229 231 233 235 237 239 241 243 244 245 248 251 254 256 256 255 253 250 249 248 249 252 252 252 257 261 257 251 246 242 242 244 241 235 232 236